This demonstration page uses our WeatherBlox Daily Observations layout. Learn more.

Left ArrowRight Arrow

38.80484, -77.04692

Hourly Observations for October 28, 2021

Temp ( °F °C ) Dew Point ( °F °C ) Humidity (%) Winds ( mph kmh ) Pressure ( in mb ) Visibility ( mi km ) Precip ( " mm )
12:52 am 00:52 Clear 56 13.3 49 9.4 77 77 NNW 6 9 29.91 1013 10 16 N/A
1:52 am 01:52 Clear 56 13.3 49 9.4 77 77 N 5 7 29.92 1013 10 16 N/A
2:52 am 02:52 Clear 54 12.2 48 8.9 80 80 N 6 9 29.91 1013 10 16 N/A
3:52 am 03:52 Clear 53 11.7 48 8.9 83 83 NNW 6 9 29.90 1013 10 16 N/A
4:52 am 04:52 Mostly Clear 53 11.7 47 8.3 80 80 NNW 5 7 29.91 1013 10 16 N/A
5:52 am 05:52 Mostly Clear 53 11.7 47 8.3 80 80 NNW 3 6 29.92 1013 10 16 N/A
6:52 am 06:52 Mostly Clear 52 11.1 46 7.8 80 80 N 5 7 29.94 1014 10 16 N/A
7:52 am 07:52 Mostly Sunny 53 11.7 48 8.9 83 83 N N/A 29.96 1015 10 16 N/A
8:52 am 08:52 Partly Cloudy 57 13.9 48 8.9 72 72 NE 5 7 29.97 1015 10 16 N/A
9:52 am 09:52 Mostly Cloudy 59 15 49 9.4 69 69 N N/A 29.96 1015 10 16 N/A
10:52 am 10:52 Cloudy 61 16.1 50 10 67 67 N N/A 29.95 1014 10 16 N/A
11:52 am 11:52 Cloudy 64 17.8 50 10 60 60 ESE 3 6 29.92 1013 10 16 N/A
12:52 pm 12:52 Cloudy 65 18.3 51 10.6 61 61 SSE 3 6 29.90 1013 10 16 N/A
1:52 pm 13:52 Cloudy 65 18.3 51 10.6 61 61 S 7 11 29.89 1012 10 16 N/A
2:52 pm 14:52 Cloudy 68 20 52 11.1 57 57 S 9 15 29.87 1012 10 16 N/A
3:52 pm 15:52 Mostly Cloudy 66 18.9 51 10.6 59 59 SE 10 17 29.86 1011 10 16 N/A
4:52 pm 16:52 Mostly Cloudy 65 18.3 49 9.4 56 56 SSE 12 19 29.87 1012 10 16 N/A
5:52 pm 17:52 Mostly Cloudy 64 17.8 50 10 60 60 SE 7 11 29.86 1011 10 16 N/A
6:52 pm 18:52 Mostly Cloudy 62 16.7 50 10 65 65 SE 8 13 29.87 1011 10 16 N/A
7:52 pm 19:52 Cloudy 62 16.7 51 10.6 67 67 SE 8 13 29.88 1012 10 16 N/A
8:52 pm 20:52 Cloudy 62 16.7 52 11.1 70 70 SSE 7 11 29.88 1012 10 16 N/A
9:27 pm 21:27 Cloudy 61 16.1 52 11.1 72 72 SE 8 13 29.89 1012 10 16 N/A
9:52 pm 21:52 Cloudy 61 16.1 52 11.1 72 72 ESE 9 15 29.88 1012 10 16 N/A
10:52 pm 22:52 Cloudy 61 16.1 52 11.1 72 72 ESE 9 15 29.86 1011 10 16 N/A
11:18 pm 23:18 Cloudy with Light Rain 61 16.1 52 11.1 72 72 E 14 22 29.86 1011 10 16 0.00 0.00
11:52 pm 23:52 Cloudy 60 15.6 52 11.1 75 75 ESE 15 24 29.86 1011 10 16 0.00 0.00

Powered by AerisWeather